Simultaneous Nadir Overpasses (SNOs) Predictions

Prediction of SNOs between AQUA and METOP-A Satellite Orbit:

Table of predicted SNOs for the next 14.0 days since TLE Epoch: 1/11/2019
Index Date (AQUA) Time (AQUA) Lat,Lon (AQUA) SZA (AQUA ) Date (METOP-A) Time (METOP-A) Lat,Lon (METOP-A) SZA (METOP-A ) Distance(km) Time Diff (sec)
1 01/12/2019 15:00:07 -74.42, 127.85 83.86 01/12/2019 14:58:58 -74.34, 125.97 83.85 57.02 69
2 01/12/2019 15:49:43 74.83, -65.51 96.58 01/12/2019 15:49:28 74.81, -65.47 96.56 2.76 15
3 01/12/2019 16:39:09 -74.88, 102.01 83.38 01/12/2019 16:40:08 -74.89, 102.10 83.37 3.35 59
4 01/15/2019 10:34:22 -74.41,-165.67 84.36 01/15/2019 10:33:13 -74.33,-167.65 84.33 60.14 69
5 01/15/2019 11:23:58 74.82, 0.95 96.09 01/15/2019 11:23:43 74.79, 0.90 96.07 3.26 15
6 01/15/2019 12:13:24 -74.86, 168.48 83.87 01/15/2019 12:14:23 -74.88, 168.47 83.86 2.20 59
7 01/18/2019 06:08:36 -74.35, -99.08 84.96 01/18/2019 06:07:28 -74.31,-101.28 84.87 66.28 68
8 01/18/2019 06:58:13 74.81, 67.41 95.55 01/18/2019 06:57:57 74.82, 67.40 95.57 1.37 16
9 01/18/2019 07:47:39 -74.85,-125.05 84.42 01/18/2019 07:48:38 -74.87,-125.17 84.41 3.77 59
10 01/21/2019 01:42:50 -74.34, -32.63 85.55 01/21/2019 01:41:42 -74.29, -34.92 85.47 69.07 68
11 01/21/2019 02:32:27 74.81, 133.85 94.97 01/21/2019 02:32:11 74.81, 133.76 94.97 2.61 16
12 01/21/2019 03:21:54 -74.90, -58.72 84.95 01/21/2019 03:22:51 -74.90, -58.67 84.96 1.54 57
13 01/23/2019 21:17:05 -74.34, 33.82 86.18 01/23/2019 21:15:57 -74.28, 31.45 86.11 71.70 68
14 01/23/2019 22:06:42 74.82,-159.73 94.34 01/23/2019 22:06:25 74.84,-159.75 94.37 2.38 17
15 01/23/2019 22:56:09 -74.90, 7.72 85.59 01/23/2019 22:57:06 -74.88, 7.69 85.61 1.94 57




NCC Satellite Simultaneous Nadir Overpasses (SNOs) Prediction Service
